1547812801.18,39520,0.0,0.0,-11.43,-14.19,-14.01,0,*63
1547812802.44,39521,0.0,0.0,-11.43,-14.11,-13.87,0,*63
1547812803.71,39522,0.0,0.0,-11.43,-14.01,-13.73,0,*6A
1547812804.98,39523,0.0,0.0,-11.43,-14.11,-14.01,0,*68
1547812806.25,39524,0.0,0.0,-11.43,-14.15,-13.97,0,*63
1547812807.54,39525,0.0,0.0,-11.43,-13.97,-13.83,0,*6A
1547812808.81,39526,0.0,0.0,-11.43,-14.11,-13.87,0,*64
1547812810.05,39527,0.0,0.0,-11.45,-14.11,-13.97,0,*62
1547812811.32,39528,0.0,0.0,-11.45,-14.01,-13.87,0,*6D
1547812812.58,39529,0.0,0.0,-11.47,-14.05,-13.93,0,*6F
1547812813.82,39530,0.0,0.0,-11.45,-13.97,-13.73,0,*67
1547812815.08,39531,0.0,0.0,-11.45,-13.87,-13.83,0,*68
1547812816.34,39532,0.0,0.0,-11.45,-14.15,-14.01,0,*6A
1547812817.61,39533,0.0,0.0,-11.47,-14.19,-14.05,0,*61
1547812818.85,39534,0.0,0.0,-11.47,-14.23,-14.15,0,*6E
1547812820.1,39535,0.0,0.0,-11.47,-14.23,-14.15,0,*6F
1547812821.34,39536,0.0,0.0,-11.47,-14.33,-14.19,0,*61
1547812822.59,39537,0.0,0.0,-11.45,-14.11,-14.01,0,*6B
1547812823.85,39538,0.0,0.0,-11.47,-14.05,-13.93,0,*6F
1547812825.12,39539,0.0,0.0,-11.49,-14.05,-14.05,0,*68
1547812826.37,39540,0.0,0.0,-11.49,-14.15,-14.05,0,*67
1547812827.61,39541,0.0,0.0,-11.49,-14.15,-14.05,0,*66
1547812828.84,39542,0.0,0.0,-11.49,-14.19,-14.15,0,*68
1547812830.09,39543,0.0,0.0,-11.49,-14.15,-14.01,0,*60
1547812831.35,39544,0.0,0.0,-11.49,-14.01,-13.87,0,*6B
1547812832.59,39545,0.0,0.0,-11.49,-14.05,-13.93,0,*6B
1547812833.86,39546,0.0,0.0,-11.49,-14.05,-14.05,0,*60
1547812835.12,39547,0.0,0.0,-11.49,-14.05,-13.87,0,*6C
1547812836.39,39548,0.0,0.0,-11.49,-14.01,-13.87,0,*67
1547812837.62,39549,0.0,0.0,-11.49,-13.93,-13.87,0,*6A
1547812838.88,39550,0.0,0.0,-11.47,-13.87,-13.73,0,*62
1547812840.14,39551,0.0,0.0,-11.47,-13.79,-13.65,0,*65
1547812841.38,39552,0.0,0.0,-11.49,-13.87,-13.65,0,*69
1547812842.61,39553,0.0,0.0,-11.49,-13.79,-13.73,0,*6E
1547812843.85,39554,0.0,0.0,-11.49,-13.79,-13.65,0,*6E
1547812845.11,39555,0.0,0.0,-11.49,-13.79,-13.61,0,*6B
1547812846.35,39556,0.0,0.0,-11.49,-13.73,-13.61,0,*62
1547812847.61,39557,0.0,0.0,-11.47,-13.79,-13.65,0,*63
1547812848.82,39558,0.0,0.0,-11.45,-13.73,-13.73,0,*63
1547812850.12,39559,0.0,0.0,-11.47,-14.01,-13.87,0,*69
1547812851.38,39560,0.0,0.0,-11.47,-14.05,-13.93,0,*62
1547812852.62,39561,0.0,0.0,-11.45,-13.87,-13.73,0,*62
1547812853.85,39562,0.0,0.0,-11.47,-13.93,-13.73,0,*66
1547812855.11,39563,0.0,0.0,-11.47,-13.87,-13.73,0,*62
1547812856.35,39564,0.0,0.0,-11.45,-13.87,-13.73,0,*67
1547812857.61,39565,0.0,0.0,-11.47,-14.01,-13.93,0,*63
1547812858.88,39566,0.0,0.0,-11.47,-13.87,-13.73,0,*67
1547812860.08,39567,0.0,0.0,-11.45,-13.73,-13.69,0,*64
1547812861.34,39568,0.0,0.0,-11.47,-13.93,-13.79,0,*66
1547812862.6,39569,0.0,0.0,-11.47,-13.87,-13.73,0,*68
1547812863.89,39570,0.0,0.0,-11.47,-13.87,-13.61,0,*63
1547812865.16,39571,0.0,0.0,-11.45,-13.83,-13.61,0,*64
1547812866.4,39572,0.0,0.0,-11.45,-13.87,-13.73,0,*60
1547812867.66,39573,0.0,0.0,-11.47,-13.87,-13.65,0,*64
1547812868.92,39574,0.0,0.0,-11.47,-13.65,-13.61,0,*6B
1547812870.16,39575,0.0,0.0,-11.45,-13.69,-13.61,0,*64
1547812871.43,39576,0.0,0.0,-11.45,-13.61,-13.61,0,*6F
1547812872.67,39577,0.0,0.0,-11.45,-13.69,-13.61,0,*66
1547812873.93,39578,0.0,0.0,-11.47,-13.65,-13.61,0,*67
1547812875.14,39579,0.0,0.0,-11.45,-13.69,-13.55,0,*6F
1547812876.36,39580,0.0,0.0,-11.45,-13.69,-13.55,0,*69
1547812877.59,39581,0.0,0.0,-11.43,-13.69,-13.55,0,*6E
1547812878.8,39582,0.0,0.0,-11.45,-13.55,-13.47,0,*67
1547812880.04,39583,0.0,0.0,-11.45,-13.61,-13.55,0,*62
1547812881.27,39584,0.0,0.0,-11.45,-13.61,-13.47,0,*66
1547812882.51,39585,0.0,0.0,-11.43,-13.69,-13.55,0,*6A
1547812883.74,39586,0.0,0.0,-11.43,-13.55,-13.43,0,*61
1547812884.97,39587,0.0,0.0,-11.43,-13.55,-13.43,0,*60
1547812886.2,39588,0.0,0.0,-11.41,-13.61,-13.47,0,*6E
1547812887.41,39589,0.0,0.0,-11.41,-13.55,-13.51,0,*6F
1547812888.67,39590,0.0,0.0,-11.41,-13.97,-13.79,0,*63
1547812889.93,39591,0.0,0.0,-11.43,-13.87,-13.73,0,*6B
1547812891.19,39592,0.0,0.0,-11.43,-13.83,-13.73,0,*6C
1547812892.43,39593,0.0,0.0,-11.41,-13.97,-13.93,0,*64
1547812893.67,39594,0.0,0.0,-11.41,-14.15,-14.05,0,*66
1547812894.91,39595,0.0,0.0,-11.41,-13.97,-13.93,0,*62
1547812896.15,39596,0.0,0.0,-11.41,-13.97,-13.93,0,*61
1547812897.44,39597,0.0,0.0,-11.43,-14.01,-13.97,0,*6E
1547812898.73,39598,0.0,0.0,-11.43,-13.97,-13.83,0,*6C
1547812900.0,39599,0.0,0.0,-11.45,-13.83,-13.61,0,*62
1547812901.27,39600,0.0,0.0,-11.43,-13.83,-13.73,0,*64
1547812902.5,39601,0.0,0.0,-11.43,-13.69,-13.55,0,*65
1547812903.74,39602,0.0,0.0,-11.43,-13.69,-13.55,0,*66
1547812904.97,39603,0.0,0.0,-11.43,-13.69,-13.69,0,*68
1547812906.21,39604,0.0,0.0,-11.41,-13.83,-13.69,0,*69
1547812907.46,39605,0.0,0.0,-11.43,-13.87,-13.69,0,*6E
1547812908.69,39606,0.0,0.0,-11.41,-13.93,-13.79,0,*6B
1547812909.92,39607,0.0,0.0,-11.41,-13.79,-13.65,0,*63
1547812911.15,39608,0.0,0.0,-11.41,-13.79,-13.65,0,*6C
1547812912.38,39609,0.0,0.0,-11.41,-13.79,-13.55,0,*6E
1547812913.59,39610,0.0,0.0,-11.41,-13.69,-13.51,0,*63
1547812914.8,39611,0.0,0.0,-11.41,-13.69,-13.51,0,*62
1547812916.04,39612,0.0,0.0,-11.41,-13.83,-13.65,0,*62
1547812917.3,39613,0.0,0.0,-11.41,-13.83,-13.79,0,*6E
1547812918.54,39614,0.0,0.0,-11.41,-13.83,-13.65,0,*64
1547812919.77,39615,0.0,0.0,-11.41,-13.79,-13.69,0,*6C
1547812921.0,39616,0.0,0.0,-11.41,-13.97,-13.93,0,*6A
1547812922.23,39617,0.0,0.0,-11.41,-13.93,-13.83,0,*6E
1547812923.5,39618,0.0,0.0,-11.39,-13.83,-13.79,0,*6A
1547812924.79,39619,0.0,0.0,-11.37,-13.79,-13.61,0,*69
1547812926.03,39620,0.0,0.0,-11.41,-13.79,-13.55,0,*65
1547812927.24,39621,0.0,0.0,-11.41,-13.69,-13.55,0,*65
1547812928.47,39622,0.0,0.0,-11.41,-13.83,-13.65,0,*61
1547812929.72,39623,0.0,0.0,-11.39,-13.79,-13.65,0,*6A
1547812930.94,39624,0.0,0.0,-11.39,-13.69,-13.55,0,*6F
1547812932.15,39625,0.0,0.0,-11.39,-13.65,-13.55,0,*62
1547812933.42,39626,0.0,0.0,-11.37,-13.79,-13.65,0,*61
1547812934.66,39627,0.0,0.0,-11.37,-13.65,-13.51,0,*6A
1547812935.93,39628,0.0,0.0,-11.37,-13.61,-13.51,0,*61
1547812937.17,39629,0.0,0.0,-11.37,-13.65,-13.51,0,*64
1547812938.44,39630,0.0,0.0,-11.37,-13.61,-13.51,0,*68
1547812939.71,39631,0.0,0.0,-11.37,-13.65,-13.61,0,*6E
1547812940.98,39632,0.0,0.0,-11.37,-13.79,-13.73,0,*63
1547812942.21,39633,0.0,0.0,-11.37,-13.93,-13.73,0,*66
1547812943.48,39634,0.0,0.0,-11.35,-13.87,-13.79,0,*6C
1547812944.74,39635,0.0,0.0,-11.37,-13.79,-13.73,0,*64
1547812945.98,39636,0.0,0.0,-11.35,-13.87,-13.73,0,*64
1547812947.19,39637,0.0,0.0,-11.35,-13.73,-13.73,0,*6E
1547812948.46,39638,0.0,0.0,-11.35,-13.83,-13.79,0,*64
1547812949.69,39639,0.0,0.0,-11.35,-13.93,-13.87,0,*65
1547812950.93,39640,0.0,0.0,-11.35,-13.87,-13.73,0,*65
1547812952.17,39641,0.0,0.0,-11.35,-13.79,-13.65,0,*62
1547812953.41,39642,0.0,0.0,-11.35,-13.79,-13.73,0,*66
1547812954.64,39643,0.0,0.0,-11.35,-13.93,-13.79,0,*69
1547812955.9,39644,0.0,0.0,-11.33,-13.87,-13.73,0,*67
1547812957.16,39645,0.0,0.0,-11.35,-13.79,-13.79,0,*6B
1547812958.4,39646,0.0,0.0,-11.35,-13.93,-13.79,0,*6C
1547812959.66,39647,0.0,0.0,-11.35,-14.01,-13.87,0,*60
1547812960.89,39648,0.0,0.0,-11.35,-14.23,-14.19,0,*6F
1547812962.15,39649,0.0,0.0,-11.33,-14.55,-14.33,0,*61
1547812963.37,39650,0.0,0.0,-11.35,-14.61,-14.37,0,*6C
1547812964.65,39651,0.0,0.0,-11.37,-14.23,-14.01,0,*6C
1547812965.92,39652,0.0,0.0,-11.37,-14.01,-13.73,0,*6D
1547812967.18,39653,0.0,0.0,-11.35,-13.87,-13.79,0,*6D
1547812968.42,39654,0.0,0.0,-11.35,-13.87,-13.65,0,*67
1547812969.63,39655,0.0,0.0,-11.35,-13.93,-13.65,0,*63
1547812970.84,39656,0.0,0.0,-11.35,-14.33,-14.11,0,*69
1547812972.12,39657,0.0,0.0,-11.37,-14.51,-14.33,0,*6E
1547812973.39,39658,0.0,0.0,-11.37,-14.19,-14.05,0,*68
1547812974.64,39659,0.0,0.0,-11.39,-14.11,-14.05,0,*6F
1547812975.92,39660,0.0,0.0,-11.37,-14.19,-14.01,0,*67
1547812977.17,39661,0.0,0.0,-11.39,-14.11,-14.01,0,*60
1547812978.47,39662,0.0,0.0,-11.37,-14.05,-13.87,0,*61
1547812979.76,39663,0.0,0.0,-11.37,-14.05,-13.87,0,*60
1547812981.02,39664,0.0,0.0,-11.39,-14.15,-13.97,0,*69
1547812982.28,39665,0.0,0.0,-11.39,-14.15,-13.97,0,*68
1547812983.56,39666,0.0,0.0,-11.37,-14.19,-14.01,0,*61
1547812984.82,39667,0.0,0.0,-11.37,-13.93,-13.87,0,*6C
1547812986.09,39668,0.0,0.0,-11.37,-13.87,-13.73,0,*6D
1547812987.35,39669,0.0,0.0,-11.37,-13.93,-13.87,0,*62
1547812988.64,39670,0.0,0.0,-11.37,-14.01,-13.87,0,*66
1547812989.91,39671,0.0,0.0,-11.37,-13.87,-13.73,0,*65
1547812991.15,39672,0.0,0.0,-11.39,-13.79,-13.65,0,*6E
1547812992.42,39673,0.0,0.0,-11.37,-13.87,-13.73,0,*67
1547812993.71,39674,0.0,0.0,-11.37,-14.01,-13.87,0,*62
1547812995.0,39675,0.0,0.0,-11.37,-13.87,-13.79,0,*6B
1547812996.22,39676,0.0,0.0,-11.39,-13.93,-13.65,0,*6E
1547812997.47,39677,0.0,0.0,-11.37,-13.93,-13.79,0,*6C
1547812998.74,39678,0.0,0.0,-11.37,-14.01,-13.93,0,*6B
1547813000.01,39679,0.0,0.0,-11.37,-14.05,-13.93,0,*6E
1547813001.28,39680,0.0,0.0,-11.37,-13.93,-13.87,0,*65
1547813002.51,39681,0.0,0.0,-11.37,-13.93,-13.93,0,*61
1547813003.78,39682,0.0,0.0,-11.37,-14.01,-13.93,0,*6E
1547813005.05,39683,0.0,0.0,-11.37,-14.05,-13.93,0,*6B
1547813006.31,39684,0.0,0.0,-11.39,-14.11,-13.97,0,*63
1547813007.61,39685,0.0,0.0,-11.37,-14.05,-14.01,0,*61
1547813008.88,39686,0.0,0.0,-11.39,-14.05,-14.05,0,*68
1547813010.18,39687,0.0,0.0,-11.37,-14.01,-13.87,0,*6E
1547813011.45,39688,0.0,0.0,-11.37,-13.87,-13.73,0,*63
1547813012.7,39689,0.0,0.0,-11.37,-13.93,-13.79,0,*6D
1547813013.97,39690,0.0,0.0,-11.37,-13.87,-13.73,0,*6A
1547813015.23,39691,0.0,0.0,-11.35,-13.87,-13.79,0,*63
1547813016.44,39692,0.0,0.0,-11.35,-13.93,-13.93,0,*61
1547813017.71,39693,0.0,0.0,-11.37,-13.87,-13.73,0,*69
1547813018.98,39694,0.0,0.0,-11.37,-13.73,-13.61,0,*66
1547813020.22,39695,0.0,0.0,-11.37,-13.73,-13.65,0,*63
1547813021.46,39696,0.0,0.0,-11.37,-13.93,-13.65,0,*6E
1547813022.72,39697,0.0,0.0,-11.33,-13.83,-13.69,0,*66
1547813023.95,39698,0.0,0.0,-11.35,-13.93,-13.79,0,*6F
1547813025.2,39699,0.0,0.0,-11.35,-13.73,-13.61,0,*69
1547813026.41,39700,0.0,0.0,-11.35,-13.69,-13.55,0,*64
1547813027.68,39701,0.0,0.0,-11.33,-13.83,-13.73,0,*63
1547813028.95,39702,0.0,0.0,-11.33,-13.87,-13.73,0,*64
1547813030.2,39703,0.0,0.0,-11.35,-14.11,-14.01,0,*69
1547813031.46,39704,0.0,0.0,-11.33,-13.83,-13.69,0,*6D
1547813032.7,39705,0.0,0.0,-11.35,-13.87,-13.73,0,*65
1547813033.99,39706,0.0,0.0,-11.33,-13.87,-13.83,0,*6F
1547813035.27,39707,0.0,0.0,-11.33,-13.87,-13.83,0,*6E
1547813036.51,39708,0.0,0.0,-11.33,-13.73,-13.69,0,*6E
1547813037.78,39709,0.0,0.0,-11.33,-13.69,-13.61,0,*6C
1547813039.04,39710,0.0,0.0,-11.33,-13.73,-13.61,0,*6F
1547813040.26,39711,0.0,0.0,-11.35,-13.69,-13.55,0,*64
1547813041.53,39712,0.0,0.0,-11.33,-13.73,-13.61,0,*6D
1547813042.8,39713,0.0,0.0,-11.33,-13.73,-13.61,0,*6C
1547813044.06,39714,0.0,0.0,-11.33,-13.83,-13.73,0,*67
1547813045.33,39715,0.0,0.0,-11.33,-13.87,-13.73,0,*62
1547813046.6,39716,0.0,0.0,-11.27,-13.83,-13.79,0,*6A
1547813047.84,39717,0.0,0.0,-11.31,-13.83,-13.69,0,*6D
1547813049.08,39718,0.0,0.0,-11.31,-13.73,-13.61,0,*65
1547813050.33,39719,0.0,0.0,-11.31,-13.73,-13.61,0,*64
1547813051.57,39720,0.0,0.0,-11.31,-13.69,-13.61,0,*65
1547813052.81,39721,0.0,0.0,-11.31,-13.73,-13.61,0,*6F
1547813054.03,39722,0.0,0.0,-11.27,-13.65,-13.55,0,*6B
1547813055.27,39723,0.0,0.0,-11.31,-13.87,-13.69,0,*6E
1547813056.48,39724,0.0,0.0,-11.31,-13.69,-13.47,0,*65
1547813057.71,39725,0.0,0.0,-11.31,-13.61,-13.47,0,*6C
1547813058.93,39726,0.0,0.0,-11.27,-13.65,-13.55,0,*6F
1547813060.2,39727,0.0,0.0,-11.27,-13.83,-13.83,0,*6D
1547813061.42,39728,0.0,0.0,-11.27,-13.55,-13.51,0,*66
1547813062.65,39729,0.0,0.0,-11.27,-13.51,-13.51,0,*63
1547813063.88,39730,0.0,0.0,-11.27,-13.51,-13.51,0,*6B
1547813065.11,39731,0.0,0.0,-11.25,-13.43,-13.43,0,*68
1547813066.35,39732,0.0,0.0,-11.25,-13.51,-13.43,0,*68
1547813067.62,39733,0.0,0.0,-11.27,-13.37,-13.37,0,*68
1547813068.91,39734,0.0,0.0,-11.25,-13.37,-13.37,0,*6D
1547813070.15,39735,0.0,0.0,-11.23,-13.33,-13.23,0,*6B
1547813071.4,39736,0.0,0.0,-11.23,-13.37,-13.23,0,*6C
1547813072.64,39737,0.0,0.0,-11.23,-13.33,-13.23,0,*69
1547813073.9,39738,0.0,0.0,-11.23,-13.37,-13.37,0,*67
1547813075.12,39739,0.0,0.0,-11.23,-13.65,-13.51,0,*61
1547813076.33,39740,0.0,0.0,-11.23,-13.73,-13.65,0,*6F
1547813077.55,39741,0.0,0.0,-11.23,-13.73,-13.73,0,*69
1547813078.76,39742,0.0,0.0,-11.23,-13.65,-13.73,0,*6D
1547813079.98,39743,0.0,0.0,-11.23,-13.73,-13.65,0,*6C
1547813081.26,39744,0.0,0.0,-11.25,-13.83,-13.79,0,*6F
1547813082.53,39745,0.0,0.0,-11.25,-13.83,-13.65,0,*63
1547813083.83,39746,0.0,0.0,-11.25,-13.83,-13.83,0,*68
1547813085.08,39747,0.0,0.0,-11.23,-13.51,-13.61,0,*6C
1547813086.3,39748,0.0,0.0,-11.23,-13.51,-13.51,0,*60
1547813087.52,39749,0.0,0.0,-11.23,-13.51,-13.51,0,*61
1547813088.76,39750,0.0,0.0,-11.23,-13.65,-13.61,0,*6D
1547813089.98,39751,0.0,0.0,-11.23,-13.51,-13.47,0,*6F
1547813091.25,39752,0.0,0.0,-11.25,-13.51,-13.37,0,*6D
1547813092.52,39753,0.0,0.0,-11.23,-13.37,-13.33,0,*6E
1547813093.79,39754,0.0,0.0,-11.23,-13.37,-13.33,0,*69
1547813095.0,39755,0.0,0.0,-11.23,-13.51,-13.47,0,*6B
1547813096.27,39756,0.0,0.0,-11.21,-13.51,-13.37,0,*6D
1547813097.49,39757,0.0,0.0,-11.19,-13.65,-13.65,0,*67
1547813098.73,39758,0.0,0.0,-11.21,-13.65,-13.51,0,*64
1547813100.0,39759,0.0,0.0,-11.21,-13.51,-13.33,0,*66
1547813101.26,39760,0.0,0.0,-11.21,-13.47,-13.33,0,*6B
1547813102.48,39761,0.0,0.0,-11.19,-13.51,-13.51,0,*62
1547813103.72,39762,0.0,0.0,-11.21,-13.51,-13.47,0,*6D
1547813104.97,39763,0.0,0.0,-11.19,-13.51,-13.37,0,*60
1547813106.2,39764,0.0,0.0,-11.21,-13.65,-13.65,0,*6C
1547813107.46,39765,0.0,0.0,-11.19,-13.79,-13.79,0,*66
1547813108.72,39766,0.0,0.0,-11.19,-13.87,-13.79,0,*64
1547813109.96,39767,0.0,0.0,-11.19,-13.87,-13.73,0,*6F
1547813111.24,39768,0.0,0.0,-11.21,-13.87,-13.79,0,*61
1547813112.47,39769,0.0,0.0,-11.19,-13.93,-13.79,0,*6E
1547813113.73,39770,0.0,0.0,-11.19,-13.87,-13.79,0,*63
1547813115.02,39771,0.0,0.0,-11.21,-13.87,-13.79,0,*69
1547813116.25,39772,0.0,0.0,-11.19,-13.87,-13.73,0,*6B
1547813117.54,39773,0.0,0.0,-11.21,-13.87,-13.79,0,*6B
1547813118.8,39774,0.0,0.0,-11.19,-13.87,-13.79,0,*67
1547813120.03,39775,0.0,0.0,-11.21,-13.93,-13.93,0,*6C
1547813121.29,39776,0.0,0.0,-11.21,-13.93,-13.87,0,*6A
1547813122.57,39777,0.0,0.0,-11.21,-13.87,-13.87,0,*6E
1547813123.85,39778,0.0,0.0,-11.21,-13.87,-13.79,0,*60
1547813125.11,39779,0.0,0.0,-11.21,-13.93,-13.79,0,*64
1547813126.37,39780,0.0,0.0,-11.21,-13.87,-13.73,0,*6D
1547813127.65,39781,0.0,0.0,-11.21,-13.87,-13.79,0,*66
1547813128.89,39782,0.0,0.0,-11.21,-13.73,-13.73,0,*64
1547813130.15,39783,0.0,0.0,-11.21,-13.61,-13.47,0,*61
1547813131.41,39784,0.0,0.0,-11.21,-13.61,-13.47,0,*66
1547813132.65,39785,0.0,0.0,-11.21,-13.47,-13.23,0,*61
1547813133.89,39786,0.0,0.0,-11.19,-13.51,-13.37,0,*6B
1547813135.16,39787,0.0,0.0,-11.21,-13.61,-13.51,0,*62
1547813136.41,39788,0.0,0.0,-11.19,-13.51,-13.37,0,*65
1547813137.65,39789,0.0,0.0,-11.19,-13.61,-13.51,0,*67
1547813138.86,39790,0.0,0.0,-11.19,-13.65,-13.51,0,*6B
1547813140.13,39791,0.0,0.0,-11.19,-13.61,-13.61,0,*6D
1547813141.41,39792,0.0,0.0,-11.19,-13.97,-13.97,0,*6E
1547813142.62,39793,0.0,0.0,-11.19,-14.33,-14.19,0,*67
1547813143.93,39794,0.0,0.0,-11.21,-13.97,-13.97,0,*63
1547813145.14,39795,0.0,0.0,-11.19,-13.93,-13.93,0,*69
1547813146.44,39796,0.0,0.0,-11.21,-14.47,-14.47,0,*61
1547813147.74,39797,0.0,0.0,-11.21,-14.47,-14.51,0,*67
1547813148.96,39798,0.0,0.0,-11.19,-14.37,-14.33,0,*60
1547813150.23,39799,0.0,0.0,-11.21,-14.51,-14.37,0,*6E
1547813151.48,39800,0.0,0.0,-11.23,-14.47,-14.33,0,*60
1547813152.75,39801,0.0,0.0,-11.23,-13.97,-13.97,0,*62
1547813154.02,39802,0.0,0.0,-11.23,-13.97,-13.87,0,*60
1547813155.27,39803,0.0,0.0,-11.23,-14.19,-14.05,0,*6D
1547813156.55,39804,0.0,0.0,-11.25,-14.11,-13.97,0,*68
1547813157.79,39805,0.0,0.0,-11.23,-14.05,-13.93,0,*6E
1547813159.09,39806,0.0,0.0,-11.25,-13.97,-13.97,0,*63
1547813160.3,39807,0.0,0.0,-11.23,-13.93,-13.93,0,*64
1547813161.59,39808,0.0,0.0,-11.25,-14.51,-14.51,0,*6D
1547813162.84,39809,0.0,0.0,-11.23,-14.61,-14.51,0,*69
1547813164.09,39810,0.0,0.0,-11.23,-14.47,-14.33,0,*61
1547813165.35,39811,0.0,0.0,-11.25,-14.43,-14.29,0,*69
1547813166.61,39812,0.0,0.0,-11.25,-14.65,-14.55,0,*65
1547813167.88,39813,0.0,0.0,-11.25,-14.79,-14.65,0,*6A
1547813169.13,39814,0.0,0.0,-11.27,-14.51,-14.37,0,*62
1547813170.35,39815,0.0,0.0,-11.27,-14.29,-14.23,0,*69
1547813171.58,39816,0.0,0.0,-11.27,-14.37,-14.15,0,*60
1547813172.82,39817,0.0,0.0,-11.31,-14.65,-14.51,0,*61
1547813174.06,39818,0.0,0.0,-11.27,-14.79,-14.69,0,*6F
1547813175.3,39819,0.0,0.0,-11.27,-14.43,-14.37,0,*6C
1547813176.57,39820,0.0,0.0,-11.31,-14.47,-14.43,0,*66
1547813177.79,39821,0.0,0.0,-11.27,-14.29,-14.11,0,*6F
1547813179.0,39822,0.0,0.0,-11.31,-14.33,-14.19,0,*68
1547813180.27,39823,0.0,0.0,-11.31,-14.47,-14.43,0,*65
1547813181.51,39824,0.0,0.0,-11.31,-14.69,-14.55,0,*69
1547813182.76,39825,0.0,0.0,-11.35,-14.51,-14.37,0,*63
1547813183.99,39826,0.0,0.0,-11.33,-14.33,-14.33,0,*66
1547813185.27,39827,0.0,0.0,-11.33,-14.19,-14.05,0,*6A
1547813186.51,39828,0.0,0.0,-11.33,-14.33,-14.15,0,*6C
1547813187.78,39829,0.0,0.0,-11.33,-14.55,-14.33,0,*69
1547813189.0,39830,0.0,0.0,-11.35,-14.37,-14.23,0,*62
1547813190.25,39831,0.0,0.0,-11.35,-14.47,-14.37,0,*61
1547813191.49,39832,0.0,0.0,-11.33,-14.33,-14.29,0,*68
1547813192.73,39833,0.0,0.0,-11.33,-14.37,-14.19,0,*6E
1547813193.94,39834,0.0,0.0,-11.35,-14.33,-14.11,0,*63
1547813195.15,39835,0.0,0.0,-11.35,-14.33,-14.11,0,*62
1547813196.43,39836,0.0,0.0,-11.35,-14.51,-14.47,0,*66
1547813197.67,39837,0.0,0.0,-11.35,-14.75,-14.61,0,*65
1547813198.91,39838,0.0,0.0,-11.35,-14.65,-14.51,0,*68
1547813200.15,39839,0.0,0.0,-11.35,-14.65,-14.51,0,*69
1547813201.42,39840,0.0,0.0,-11.35,-14.75,-14.47,0,*61
1547813202.66,39841,0.0,0.0,-11.35,-14.65,-14.51,0,*66
1547813203.93,39842,0.0,0.0,-11.37,-14.51,-14.37,0,*60
1547813205.2,39843,0.0,0.0,-11.39,-14.51,-14.43,0,*6C
1547813206.44,39844,0.0,0.0,-11.37,-14.33,-14.11,0,*66
1547813207.69,39845,0.0,0.0,-11.37,-14.23,-14.11,0,*66
1547813208.93,39846,0.0,0.0,-11.37,-14.23,-14.19,0,*6D
1547813210.21,39847,0.0,0.0,-11.37,-14.19,-14.01,0,*6C
1547813211.45,39848,0.0,0.0,-11.37,-14.33,-14.11,0,*6A
1547813212.73,39849,0.0,0.0,-11.37,-14.11,-14.01,0,*6A
1547813214.03,39850,0.0,0.0,-11.37,-14.05,-14.01,0,*67
1547813215.31,39851,0.0,0.0,-11.37,-14.11,-14.01,0,*63
1547813216.58,39852,0.0,0.0,-11.37,-14.11,-14.01,0,*60
1547813217.86,39853,0.0,0.0,-11.37,-14.19,-14.01,0,*69
1547813219.13,39854,0.0,0.0,-11.37,-14.33,-14.05,0,*62
1547813220.37,39855,0.0,0.0,-11.37,-14.33,-14.11,0,*66
1547813221.61,39856,0.0,0.0,-11.37,-14.37,-14.19,0,*69
1547813222.85,39857,0.0,0.0,-11.37,-14.33,-14.19,0,*6C
1547813224.13,39858,0.0,0.0,-11.37,-14.19,-14.01,0,*62
1547813225.41,39859,0.0,0.0,-11.37,-14.23,-14.05,0,*6E
1547813226.71,39860,0.0,0.0,-11.37,-14.05,-14.01,0,*64
1547813227.99,39861,0.0,0.0,-11.37,-14.19,-14.05,0,*6C
1547813229.26,39862,0.0,0.0,-11.37,-14.19,-14.05,0,*6F
1547813230.53,39863,0.0,0.0,-11.37,-14.11,-14.05,0,*66
1547813231.84,39864,0.0,0.0,-11.37,-14.05,-14.01,0,*60
1547813233.11,39865,0.0,0.0,-11.37,-14.19,-14.05,0,*68
1547813234.36,39866,0.0,0.0,-11.37,-14.23,-14.11,0,*67
1547813235.6,39867,0.0,0.0,-11.37,-14.23,-14.11,0,*66
1547813236.84,39868,0.0,0.0,-11.37,-14.11,-13.93,0,*65
1547813238.13,39869,0.0,0.0,-11.39,-14.05,-13.97,0,*6B
1547813239.37,39870,0.0,0.0,-11.39,-14.65,-14.51,0,*68
1547813240.63,39871,0.0,0.0,-11.37,-14.65,-14.51,0,*67
1547813241.9,39872,0.0,0.0,-11.37,-14.89,-14.75,0,*60
1547813243.17,39873,0.0,0.0,-11.37,-14.89,-14.75,0,*61
1547813244.43,39874,0.0,0.0,-11.39,-14.97,-14.83,0,*6E
1547813245.7,39875,0.0,0.0,-11.37,-14.89,-14.79,0,*6B
1547813246.93,39876,0.0,0.0,-11.39,-14.69,-14.43,0,*61
1547813248.18,39877,0.0,0.0,-11.39,-14.83,-14.69,0,*6C
1547813249.45,39878,0.0,0.0,-11.37,-14.65,-14.47,0,*69
1547813250.72,39879,0.0,0.0,-11.43,-14.83,-14.61,0,*67
1547813251.98,39880,0.0,0.0,-11.43,-14.83,-14.69,0,*69
1547813253.24,39881,0.0,0.0,-11.43,-14.89,-14.75,0,*6F
1547813254.5,39882,0.0,0.0,-11.41,-14.75,-14.55,0,*6F
1547813255.72,39883,0.0,0.0,-11.41,-14.65,-14.43,0,*68
1547813256.98,39884,0.0,0.0,-11.41,-14.79,-14.55,0,*65
1547813258.24,39885,0.0,0.0,-11.43,-14.75,-14.69,0,*65
1547813259.49,39886,0.0,0.0,-11.43,-14.69,-14.47,0,*67
1547813260.75,39887,0.0,0.0,-11.43,-14.61,-14.43,0,*6A
1547813261.99,39888,0.0,0.0,-11.45,-14.47,-14.33,0,*60
1547813263.26,39889,0.0,0.0,-11.43,-14.55,-14.29,0,*6F
1547813264.55,39890,0.0,0.0,-11.43,-14.51,-14.43,0,*6F
1547813265.81,39891,0.0,0.0,-11.43,-14.55,-14.33,0,*6D
1547813267.07,39892,0.0,0.0,-11.43,-14.43,-14.15,0,*6D
1547813268.34,39893,0.0,0.0,-11.43,-14.43,-14.19,0,*60
1547813269.59,39894,0.0,0.0,-11.43,-14.69,-14.55,0,*67
1547813270.84,39895,0.0,0.0,-11.43,-14.69,-14.55,0,*66
1547813272.12,39896,0.0,0.0,-11.43,-14.47,-14.23,0,*68
1547813273.36,39897,0.0,0.0,-11.45,-14.61,-14.47,0,*69
1547813274.63,39898,0.0,0.0,-11.45,-14.55,-14.47,0,*61
1547813275.89,39899,0.0,0.0,-11.45,-14.55,-14.43,0,*64
1547813277.13,39900,0.0,0.0,-11.45,-14.55,-14.33,0,*62
1547813278.37,39901,0.0,0.0,-11.45,-14.43,-14.33,0,*64
1547813279.61,39902,0.0,0.0,-11.47,-14.37,-14.19,0,*6E
1547813280.85,39903,0.0,0.0,-11.45,-14.43,-14.15,0,*62
1547813282.08,39904,0.0,0.0,-11.43,-14.33,-14.19,0,*68
1547813283.34,39905,0.0,0.0,-11.43,-14.43,-14.19,0,*6E
1547813284.61,39906,0.0,0.0,-11.43,-14.55,-14.29,0,*69
1547813285.88,39907,0.0,0.0,-11.43,-14.47,-14.29,0,*6B
1547813287.11,39908,0.0,0.0,-11.43,-14.33,-14.19,0,*64
1547813288.38,39909,0.0,0.0,-11.43,-14.47,-14.29,0,*65
1547813289.6,39910,0.0,0.0,-11.45,-14.29,-14.15,0,*6C
1547813290.84,39911,0.0,0.0,-11.45,-14.43,-14.15,0,*61
1547813292.05,39912,0.0,0.0,-11.45,-14.33,-14.19,0,*69
1547813293.29,39913,0.0,0.0,-11.45,-14.43,-14.15,0,*63
1547813294.51,39914,0.0,0.0,-11.45,-14.29,-14.15,0,*68
1547813295.74,39915,0.0,0.0,-11.45,-14.69,-14.55,0,*69
1547813296.98,39916,0.0,0.0,-11.45,-14.43,-14.15,0,*66
1547813298.19,39917,0.0,0.0,-11.45,-14.29,-14.11,0,*6F
1547813299.4,39918,0.0,0.0,-11.45,-14.29,-14.15,0,*64
1547813300.62,39919,0.0,0.0,-11.45,-14.19,-14.11,0,*62
1547813301.83,39920,0.0,0.0,-11.45,-14.29,-14.11,0,*6B
1547813303.07,39921,0.0,0.0,-11.45,-14.11,-14.01,0,*60
1547813304.3,39922,0.0,0.0,-11.45,-14.15,-14.15,0,*62
1547813305.56,39923,0.0,0.0,-11.45,-14.55,-14.43,0,*64
1547813306.77,39924,0.0,0.0,-11.45,-14.19,-14.11,0,*6C
1547813308.04,39925,0.0,0.0,-11.45,-14.47,-14.43,0,*61
1547813309.31,39926,0.0,0.0,-11.47,-14.51,-14.37,0,*64
1547813310.51,39927,0.0,0.0,-11.45,-14.29,-14.11,0,*6C
1547813311.79,39928,0.0,0.0,-11.47,-14.15,-14.05,0,*6B
1547813313.03,39929,0.0,0.0,-11.45,-14.11,-13.83,0,*65
1547813314.27,39930,0.0,0.0,-11.47,-14.15,-13.93,0,*6A
1547813315.49,39931,0.0,0.0,-11.45,-14.29,-14.15,0,*6F
1547813316.7,39932,0.0,0.0,-11.45,-14.33,-14.15,0,*67
1547813317.94,39933,0.0,0.0,-11.45,-14.43,-14.29,0,*6E
1547813319.16,39934,0.0,0.0,-11.45,-14.29,-14.15,0,*6A
1547813320.41,39935,0.0,0.0,-11.45,-14.15,-13.97,0,*69
1547813321.65,39936,0.0,0.0,-11.45,-14.11,-14.01,0,*66
1547813322.9,39937,0.0,0.0,-11.47,-14.37,-14.15,0,*64
1547813324.15,39938,0.0,0.0,-11.45,-14.15,-14.01,0,*6C
1547813325.44,39939,0.0,0.0,-11.47,-14.01,-13.79,0,*62
1547813326.67,39940,0.0,0.0,-11.45,-13.87,-13.73,0,*6D
1547813327.92,39941,0.0,0.0,-11.45,-14.15,-14.01,0,*62
1547813329.17,39942,0.0,0.0,-11.45,-14.47,-14.19,0,*6F
1547813330.41,39943,0.0,0.0,-11.45,-14.11,-13.97,0,*6C
1547813331.66,39944,0.0,0.0,-11.45,-14.15,-14.01,0,*67
1547813332.9,39945,0.0,0.0,-11.45,-14.43,-14.19,0,*6C
1547813334.14,39946,0.0,0.0,-11.45,-14.43,-14.19,0,*6F
1547813335.35,39947,0.0,0.0,-11.45,-14.19,-14.11,0,*69
1547813336.57,39948,0.0,0.0,-11.45,-14.19,-14.11,0,*66
1547813337.81,39949,0.0,0.0,-11.47,-14.37,-14.19,0,*61
1547813339.05,39950,0.0,0.0,-11.47,-14.33,-14.15,0,*61
1547813340.26,39951,0.0,0.0,-11.45,-14.19,-14.11,0,*6E
1547813341.51,39952,0.0,0.0,-11.45,-14.15,-14.01,0,*60
1547813342.76,39953,0.0,0.0,-11.45,-14.29,-14.01,0,*6E
1547813343.98,39954,0.0,0.0,-11.45,-14.19,-14.15,0,*6F
1547813345.18,39955,0.0,0.0,-11.45,-14.29,-14.11,0,*69
1547813346.39,39956,0.0,0.0,-11.45,-14.33,-14.11,0,*61